THORAD AGENA D DEB, 5957

Orbit data source: Space-Track

THORAD AGENA D DEB, 5957 is space debris in SSO originally from a launch on Wed, 08 Apr 1970 UTC launched from the Air Force Western Test Range (AFWTR). Debris objects in space refer to the collection of defunct objects orbiting the Earth. Examples of debris include non-operational satellites, rocket bodies, and fragments generated from explosions, collisions, or faulty payload assembly.

Loading next visibility...
Identifier
5957, 1970-025MN
Orbit
SSO
Country
Flag of USUS
Related business
Manufacturer
Unknown
Mission
Spacecraft
Bus & Motor
Unknown
Mass
Unknown
Launch date (UTC)
1970-04-08 (56 years ago)
Launch vehicle
Unknown
Launch site
Air Force Western Test Range (AFWTR)
Object type
Payload
Rocket body
Debris
Shape & HBR
Unknown shape, 0.1 m
Radar Cross Section
Small (<0.1 m²)

Expand to show TLE details & history
Last TLE update: 22 hours ago

TLE from 22 hours ago
0 THORAD AGENA D DEB
1 05957U 70025MN  25300.59231908  .00371745  00000-0  13375-1 0  9994
2 05957  99.6139  51.5156 0019221 293.5389  66.3823 15.26810637139169
Epoch: 2025-10-27T14:12Z
TLE epoch observation values (Epoch: 2025-10-27T14:12:56.368Z)
Latitude
-0.00005°
Longitude
162.08879°
Altitude
483.116 km
Speed
7.627 km/s
True Right ascension
03h 26m 03s
True Declination
0° 00' 00"
Sunlit
Object was in full shadow at epoch
Visualization orbit readout
Latitude
Unknown
Longitude
Unknown
Altitude
Unknown
Speed
Unknown
Apparent Right ascension
Unknown
Apparent Declination
Unknown
Sunlit
N/A
Visualization observer readout
Local Sidereal Time
07:51:19
Azimuth
Unknown
Elevation
Unknown
Doppler factor
Unknown
Orbital elements
Apogee altitude
495.606 km
Perigee altitude
469.232 km
Semi-major axis
6,860.556 km
Eccentricity
0.00192
Inclination
99.6139°
RAAN
51.5156°
Arg. of periapsis
293.5389°
True anomaly
66.5843°
Mean anomaly
66.3823°
Eccentric anomaly
66.48328°
Mean motion
3.81948 °/min
Orbital period
94.25 mins
BSTAR
0.013375
Loading maneuver chart data...
Computing Atmospheric mass density...

Documentation

Showing up to 5 results
|